User: anonymous   Login
Location: Unspecified
(0.0000°N, 0.0000°E)
Time: 08:23:22
(UTC+00:00)
Language:

UME 2 Rocket - Orbit

View from above orbital plane
View from above orbital plane
View from above satellite
View from above satellite

Ground track
Ground track

The orbit data is extracted from the following two-line orbital elements,

1 10674U 78018A   19345.81962170 -.00000044 +00000-0 +91052-5 0  9999
2 10674 069.3625 008.6432 0163407 171.7027 000.6656 13.43613342051009
Epoch (UTC): 11 December 2019 19:40:15
Eccentricity: 0.0163407
inclination: 69.3625°
perigee height: 974 km
apogee height: 1218 km
right ascension of ascending node: 8.6432°
argument of perigee: 171.7027°
revolutions per day: 13.43613342
mean anomaly at epoch: 0.6656°
orbit number at epoch: 5100

The dashed part of the orbit path shows where the satellite is in the earth's shadow,  

DLR